Location: Freiburg+im+Breisgau
(48.0359°N, 7.8195°E)
Time: 22:18:55
(UTC+01:00)

ISS - Pass Details

Date: 17 November 2017
Orbit: 401 x 407 km, 51.6° (Epoch: 18 November)

Event Time Altitude Azimuth Distance (km) Brightness Sun altitude
Exits shadow 06:21:10 12° 234° (SW) 1,342 -1.6 -12.8°
Maximum altitude 06:21:37 12° 225° (SW) 1,328 -1.5 -12.7°
Drops below altitude 10° 06:22:58 10° 200° (SSW) 1,448 -1.1 -12.5°
Sets 06:26:01 0° 169° (SSE) 2,301 0.4 -12.0°
